Location: Maccacari
(45.1333°N, 11.1333°E)
Time: 03:35:08
(UTC+00:00)

Altair - Pass Details

Date: 29 January 2021
Orbit: 1501 x 1682 km, 47.2° (Epoch: 01 March)

Event Time Altitude Azimuth Distance (km) Brightness Sun altitude
Rises 04:58:41 0° 260° (W) 4,864 - -17.7°
Reaches altitude 10° 05:01:48 10° 261° (W) 3,897 - -17.2°
Exits shadow 05:04:13 20° 262° (W) 3,168 8.6 -16.8°
Maximum altitude 05:11:54 83° 350° (N) 1,694 7.6 -15.4°
Drops below altitude 10° 05:22:08 10° 79° (E) 3,944 10.8 -13.7°
Sets 05:25:18 0° 81° (E) 4,925 11.5 -13.1°
